When you browse on this site, cookies collect data to enhance your experience and personalize the content and advertising you see.
Visit our Privacy Policy to learn more. By continuing to use the site, you agree to this use of cookies and data.
  • In Hungary
  • List of Countries
  • For 7 days
  • Water Temperature
  • Satellite Maps
  • Weather Map
  • News
  • Weather Widgets
  • user-avatar
    Login

    Hourly Weather Gierczyce

    Today, 20 May, Monday

    Time Temperature Precipitation Wind Pressure Humidity
    00:00 +14°C° 0 mm 2 mps 728 mmHg 91%
    01:00 +13°C° 0 mm 1 mps 728 mmHg 92%
    02:00 +13°C° 0 mm 1 mps 727 mmHg 91%
    03:00 +13°C° 0 mm 2 mps 727 mmHg 91%
    04:00 +13°C° 0 mm 2 mps 727 mmHg 91%
    05:00 +15°C° 0 mm 2 mps 727 mmHg 87%
    06:00 +16°C° 0 mm 3 mps 727 mmHg 82%
    07:00 +18°C° 0 mm 4 mps 727 mmHg 77%
    08:00 +20°C° 0 mm 4 mps 727 mmHg 70%
    09:00 +22°C° 0 mm 5 mps 727 mmHg 64%
    10:00 +25°C° 0 mm 5 mps 728 mmHg 57%
    11:00 +25°C° 0 mm 5 mps 728 mmHg 55%
    12:00 +25°C° 0 mm 5 mps 728 mmHg 53%
    13:00 +26°C° 0 mm 5 mps 728 mmHg 51%
    14:00 +25°C° 0 mm 4 mps 728 mmHg 54%
    15:00 +25°C° 0 mm 4 mps 728 mmHg 56%
    16:00 +23°C° 0 mm 4 mps 728 mmHg 58%
    17:00 +22°C° 0 mm 3 mps 728 mmHg 63%
    18:00 +20°C° 0 mm 3 mps 728 mmHg 68%
    19:00 +18°C° 0 mm 3 mps 728 mmHg 73%
    20:00 +17°C° 0 mm 3 mps 728 mmHg 75%
    21:00 +16°C° 0 mm 2 mps 728 mmHg 77%
    22:00 +15°C° 0 mm 2 mps 728 mmHg 79%
    23:00 +14°C° 0 mm 2 mps 728 mmHg 81%

    Tomorrow, 21 May, Tuesday

    Time Temperature Precipitation Wind Pressure Humidity
    00:00 +13°C° 0 mm 2 mps 728 mmHg 83%
    01:00 +13°C° 0 mm 2 mps 728 mmHg 85%
    02:00 +12°C° 0 mm 2 mps 728 mmHg 85%
    03:00 +12°C° 0 mm 1 mps 728 mmHg 86%
    04:00 +12°C° 0 mm 1 mps 728 mmHg 86%
    05:00 +13°C° 0 mm 1 mps 728 mmHg 83%
    06:00 +15°C° 0 mm 1 mps 728 mmHg 79%
    07:00 +15°C° 0 mm 0 mps 728 mmHg 76%
    08:00 +16°C° 0.1 mm 0 mps 728 mmHg 75%
    09:00 +16°C° 0.1 mm 0 mps 728 mmHg 74%
    10:00 +19°C° 0.1 mm 1 mps 728 mmHg 74%
    11:00 +19°C° 0.5 mm 1 mps 728 mmHg 74%
    12:00 +18°C° 0.5 mm 2 mps 727 mmHg 74%
    13:00 +18°C° 0.5 mm 3 mps 727 mmHg 74%
    14:00 +18°C° 0.4 mm 3 mps 727 mmHg 76%
    15:00 +18°C° 0.4 mm 2 mps 727 mmHg 79%
    16:00 +18°C° 0.4 mm 2 mps 727 mmHg 82%
    17:00 +17°C° 1.4 mm 2 mps 727 mmHg 84%
    18:00 +16°C° 1.4 mm 2 mps 727 mmHg 87%
    19:00 +15°C° 1.4 mm 2 mps 727 mmHg 90%
    20:00 +14°C° 0.3 mm 2 mps 727 mmHg 90%
    21:00 +13°C° 0.3 mm 3 mps 727 mmHg 91%
    22:00 +13°C° 0.3 mm 3 mps 727 mmHg 92%
    23:00 +12°C° 0.3 mm 3 mps 727 mmHg 92%

    Day after tomorrow, 22 May, Wednesday

    Time Temperature Precipitation Wind Pressure Humidity
    00:00 +12°C° 0.3 mm 3 mps 727 mmHg 92%
    01:00 +12°C° 0.3 mm 3 mps 727 mmHg 92%
    02:00 +12°C° 0.6 mm 3 mps 727 mmHg 93%
    03:00 +12°C° 0.6 mm 3 mps 727 mmHg 93%
    04:00 +12°C° 0.6 mm 3 mps 727 mmHg 93%
    05:00 +12°C° 1.2 mm 3 mps 728 mmHg 93%
    06:00 +12°C° 1.2 mm 3 mps 728 mmHg 93%
    07:00 +12°C° 1.2 mm 3 mps 728 mmHg 93%
    08:00 +13°C° 0.3 mm 3 mps 728 mmHg 92%
    09:00 +13°C° 0.3 mm 3 mps 728 mmHg 92%
    10:00 +14°C° 0.3 mm 3 mps 729 mmHg 91%
    11:00 +15°C° 0.5 mm 4 mps 729 mmHg 87%
    12:00 +17°C° 0.5 mm 5 mps 729 mmHg 82%
    13:00 +20°C° 0.5 mm 6 mps 729 mmHg 78%
    14:00 +19°C° 0.9 mm 6 mps 729 mmHg 81%
    15:00 +17°C° 0.9 mm 6 mps 729 mmHg 83%
    16:00 +17°C° 0.9 mm 6 mps 729 mmHg 86%
    17:00 +16°C° 0.4 mm 5 mps 729 mmHg 88%
    18:00 +15°C° 0.4 mm 5 mps 729 mmHg 90%
    19:00 +14°C° 0.4 mm 4 mps 729 mmHg 92%
    20:00 +14°C° 0.7 mm 4 mps 729 mmHg 93%
    21:00 +14°C° 0.7 mm 4 mps 729 mmHg 94%
    22:00 +14°C° 0.7 mm 4 mps 729 mmHg 95%
    23:00 +14°C° 0.9 mm 4 mps 729 mmHg 95%

    23 May, Thursday

    Time Temperature Precipitation Wind Pressure Humidity
    00:00 +13°C° 0.9 mm 5 mps 729 mmHg 95%
    01:00 +13°C° 0.9 mm 5 mps 729 mmHg 95%
    02:00 +13°C° 0.6 mm 5 mps 729 mmHg 95%
    03:00 +13°C° 0.6 mm 4 mps 729 mmHg 95%
    04:00 +13°C° 0.6 mm 4 mps 729 mmHg 95%
    05:00 +14°C° 1.1 mm 5 mps 730 mmHg 94%
    06:00 +14°C° 1.1 mm 5 mps 730 mmHg 94%
    07:00 +14°C° 1.1 mm 5 mps 731 mmHg 93%
    08:00 +13°C° 0.8 mm 6 mps 731 mmHg 93%
    09:00 +11°C° 0.8 mm 6 mps 732 mmHg 93%
    10:00 +10°C° 0.8 mm 7 mps 732 mmHg 93%
    11:00 +9°C° 0.3 mm 7 mps 732 mmHg 93%
    12:00 +9°C° 0.3 mm 7 mps 733 mmHg 92%
    13:00 +9°C° 0.3 mm 7 mps 733 mmHg 92%
    14:00 +9°C° 0.2 mm 7 mps 733 mmHg 92%
    15:00 +8°C° 0.2 mm 7 mps 733 mmHg 91%
    16:00 +8°C° 0.2 mm 7 mps 734 mmHg 91%
    17:00 +8°C° 0.1 mm 6 mps 734 mmHg 91%
    18:00 +8°C° 0.1 mm 5 mps 734 mmHg 91%
    19:00 +7°C° 0.1 mm 5 mps 734 mmHg 91%
    20:00 +7°C° 0.1 mm 4 mps 734 mmHg 91%
    21:00 +7°C° 0.1 mm 4 mps 735 mmHg 91%
    22:00 +7°C° 0.1 mm 4 mps 735 mmHg 91%
    23:00 +7°C° 0 mm 4 mps 735 mmHg 91%

    24 May, Friday

    Time Temperature Precipitation Wind Pressure Humidity
    00:00 +8°C° 0 mm 3 mps 735 mmHg 91%
    01:00 +8°C° 0 mm 3 mps 735 mmHg 91%
    02:00 +8°C° 0 mm 3 mps 735 mmHg 92%
    03:00 +7°C° 0 mm 3 mps 735 mmHg 94%
    04:00 +7°C° 0 mm 3 mps 735 mmHg 95%
    05:00 +8°C° 0 mm 3 mps 735 mmHg 90%
    06:00 +9°C° 0 mm 3 mps 735 mmHg 85%
    07:00 +11°C° 0 mm 3 mps 735 mmHg 81%
    08:00 +12°C° 0 mm 3 mps 735 mmHg 74%
    09:00 +13°C° 0 mm 3 mps 735 mmHg 68%
    10:00 +14°C° 0 mm 4 mps 735 mmHg 62%
    11:00 +16°C° 0 mm 3 mps 734 mmHg 59%
    12:00 +17°C° 0 mm 3 mps 734 mmHg 57%
    13:00 +18°C° 0 mm 3 mps 734 mmHg 55%
    14:00 +18°C° 0 mm 3 mps 733 mmHg 56%
    15:00 +18°C° 0 mm 3 mps 733 mmHg 58%
    16:00 +18°C° 0 mm 3 mps 733 mmHg 60%
    17:00 +16°C° 0 mm 2 mps 732 mmHg 65%
    18:00 +15°C° 0 mm 1 mps 732 mmHg 71%
    19:00 +13°C° 0 mm 0 mps 732 mmHg 77%
    20:00 +13°C° 0 mm 1 mps 732 mmHg 79%
    21:00 +12°C° 0 mm 1 mps 732 mmHg 82%
    22:00 +11°C° 0 mm 1 mps 733 mmHg 84%
    23:00 +10°C° 0 mm 1 mps 732 mmHg 85%

    25 May, Saturday

    Time Temperature Precipitation Wind Pressure Humidity
    00:00 +10°C° 0 mm 1 mps 732 mmHg 87%
    01:00 +10°C° 0 mm 1 mps 732 mmHg 88%
    02:00 +9°C° 0 mm 1 mps 732 mmHg 88%
    03:00 +9°C° 0 mm 1 mps 732 mmHg 89%
    04:00 +9°C° 0 mm 1 mps 732 mmHg 89%
    05:00 +11°C° 0 mm 1 mps 732 mmHg 83%
    06:00 +13°C° 0 mm 1 mps 732 mmHg 77%
    07:00 +14°C° 0 mm 0 mps 732 mmHg 71%
    08:00 +16°C° 0 mm 1 mps 732 mmHg 66%
    09:00 +19°C° 0 mm 1 mps 732 mmHg 61%
    10:00 +20°C° 0 mm 1 mps 732 mmHg 57%
    11:00 +21°C° 0 mm 1 mps 732 mmHg 55%
    12:00 +20°C° 0 mm 2 mps 732 mmHg 53%
    13:00 +21°C° 0 mm 2 mps 732 mmHg 51%
    14:00 +21°C° 0 mm 2 mps 732 mmHg 53%
    15:00 +21°C° 0 mm 2 mps 732 mmHg 54%
    16:00 +21°C° 0 mm 2 mps 732 mmHg 56%
    17:00 +20°C° 0 mm 2 mps 732 mmHg 62%
    18:00 +19°C° 0 mm 1 mps 732 mmHg 67%
    19:00 +16°C° 0 mm 1 mps 732 mmHg 73%
    20:00 +15°C° 0 mm 1 mps 732 mmHg 76%
    21:00 +14°C° 0 mm 1 mps 733 mmHg 80%
    22:00 +13°C° 0 mm 1 mps 733 mmHg 83%
    23:00 +13°C° 0 mm 1 mps 733 mmHg 85%
    Show more